TimeCDT,TemperatureF,Dew PointF,Humidity,Sea Level PressureIn,VisibilityMPH,Wind Direction,Wind SpeedMPH,Gust SpeedMPH,PrecipitationIn,Events,Conditions,WindDirDegrees,DateUTC
12:53 AM,80.1,55.9,43,29.85,10.0,South,10.4,-,N/A,,Clear,170,2013-06-13 05:53:00
1:53 AM,78.1,57.9,50,29.86,10.0,South,9.2,-,N/A,,Clear,180,2013-06-13 06:53:00
2:53 AM,75.9,59.0,56,29.86,10.0,South,9.2,-,N/A,,Clear,190,2013-06-13 07:53:00
3:53 AM,73.9,59.0,59,29.86,10.0,South,8.1,-,N/A,,Clear,190,2013-06-13 08:53:00
4:53 AM,70.0,57.9,65,29.87,10.0,South,5.8,-,N/A,,Clear,190,2013-06-13 09:53:00
5:53 AM,68.0,57.0,68,29.88,10.0,Calm,Calm,-,N/A,,Clear,0,2013-06-13 10:53:00
6:53 AM,66.9,57.9,73,29.90,10.0,SSE,6.9,-,N/A,,Clear,160,2013-06-13 11:53:00
7:53 AM,73.0,60.1,64,29.91,10.0,East,5.8,-,N/A,,Clear,90,2013-06-13 12:53:00
8:53 AM,77.0,62.1,60,29.92,10.0,East,6.9,-,N/A,,Clear,100,2013-06-13 13:53:00
9:53 AM,82.0,61.0,49,29.92,10.0,SE,10.4,-,N/A,,Clear,140,2013-06-13 14:53:00
10:53 AM,89.1,61.0,39,29.89,10.0,South,5.8,-,N/A,,Clear,170,2013-06-13 15:53:00
11:53 AM,93.9,55.9,28,29.88,10.0,South,16.1,-,N/A,,Clear,170,2013-06-13 16:53:00
12:53 PM,95.0,53.1,24,29.87,10.0,South,18.4,26.5,N/A,,Clear,180,2013-06-13 17:53:00
1:53 PM,97.0,51.1,21,29.85,10.0,South,21.9,29.9,N/A,,Clear,180,2013-06-13 18:53:00
2:53 PM,97.0,52.0,22,29.83,10.0,South,18.4,27.6,N/A,,Clear,180,2013-06-13 19:53:00
3:53 PM,98.1,51.1,20,29.81,10.0,South,19.6,28.8,N/A,,Clear,170,2013-06-13 20:53:00
4:53 PM,99.0,51.1,20,29.78,10.0,South,20.7,24.2,N/A,,Clear,190,2013-06-13 21:53:00
5:53 PM,98.1,50.0,20,29.78,10.0,South,18.4,26.5,N/A,,Clear,180,2013-06-13 22:53:00
6:53 PM,97.0,51.1,21,29.77,10.0,South,17.3,24.2,N/A,,Clear,190,2013-06-13 23:53:00
7:53 PM,95.0,53.1,24,29.77,10.0,South,12.7,23.0,N/A,,Clear,180,2013-06-14 00:53:00
8:53 PM,90.0,54.0,29,29.78,10.0,SSE,13.8,20.7,N/A,,Clear,160,2013-06-14 01:53:00
9:53 PM,87.1,52.0,30,29.78,10.0,SSE,12.7,-,N/A,,Clear,160,2013-06-14 02:53:00
10:53 PM,84.9,55.0,36,29.81,10.0,South,13.8,20.7,N/A,,Clear,170,2013-06-14 03:53:00
11:53 PM,82.9,55.9,39,29.80,10.0,South,20.7,24.2,N/A,,Clear,180,2013-06-14 04:53:00